FW6376 Weather Reports


Display with metric or nautical units.
time (UTC)temp
F
wind
direction
speed
MPH
gust
MPH
rain 1hr
in
rain 24hr
in
rain mn
in
humidity
%
barometer
mb
20260901094537 57 182 0.0 1.0 0.00 0.00 0.00 81 1018.5
20260901093036 57 182 0.0 4.0 0.00 0.00 0.00 81 1018.9
20260901091536 57 186 0.0 2.0 0.00 0.00 0.00 82 1018.8
20260901090039 57 186 0.0 0.0 0.00 0.00 0.00 82 1018.8
20260901084533 56 186 0.0 0.0 0.00 0.00 0.00 82 1018.7
20260901083032 56 186 0.0 0.0 0.00 0.00 0.00 82 1018.9
20260901081530 56 186 0.0 0.0 0.00 0.00 0.00 82 1018.9
20260901080029 56 186 0.0 0.0 0.00 0.00 0.00 82 1018.9
20260901074527 56 186 0.0 0.0 0.00 0.00 0.00 82 1019.0
20260901073027 56 186 0.0 0.0 0.00 0.00 0.00 82 1018.8
20260901071528 56 186 0.0 0.0 0.00 0.00 0.00 82 1018.8
20260901070023 55 186 0.0 0.0 0.00 0.00 0.00 82 1019.1
20260901064529 55 186 0.0 0.0 0.00 0.00 0.00 82 1019.1
20260901063027 55 186 0.0 1.0 0.00 0.00 0.00 82 1019.1
20260901061519 55 186 0.0 0.0 0.00 0.00 0.00 82 1019.4
20260901060018 54 186 0.0 0.0 0.00 0.00 0.00 82 1019.5
20260901054518 54 186 0.0 0.0 0.00 0.00 0.00 82 1019.7
20260901053017 54 186 0.0 0.0 0.00 0.00 0.00 81 1019.5
20260901051515 54 186 0.0 0.0 0.00 0.00 0.00 81 1019.4
20260901050017 54 186 0.0 0.0 0.00 0.00 0.00 81 1019.8
20260901044513 54 186 0.0 0.0 0.00 0.00 0.00 81 1019.7
20260901043011 55 186 0.0 0.0 0.00 0.00 0.00 81 1019.6
20260901041511 55 186 0.0 0.0 0.00 0.00 0.00 81 1019.5
20260901040015 55 186 0.0 0.0 0.00 0.00 0.00 81 1019.3
20260901034507 55 186 0.0 0.0 0.00 0.00 0.00 80 1019.4
20260901033007 55 186 0.0 0.0 0.00 0.00 0.00 80 1019.3
20260901031507 55 186 0.0 0.0 0.00 0.00 0.00 79 1019.4
20260901030005 56 186 0.0 0.0 0.00 0.00 0.00 78 1019.1
20260901024510 56 186 0.0 0.0 0.00 0.00 0.00 77 1019.1
20260901023005 56 186 0.0 0.0 0.00 0.00 0.00 76 1019.2
20260901021504 57 186 0.0 1.0 0.00 0.00 0.00 75 1019.1
20260901020004 57 186 0.0 0.0 0.00 0.00 0.00 70 1019.2
20260901014503 58 186 0.0 0.0 0.00 0.00 0.00 68 1019.0
20260901013003 58 186 0.0 0.0 0.00 0.00 0.00 69 1019.0
20260901011501 59 186 0.0 0.0 0.00 0.00 0.00 68 1018.9
20260901010001 60 186 0.0 0.0 0.00 0.01 0.00 68 1018.9
20260901004503 60 186 0.0 0.0 0.00 0.01 0.00 68 1018.9
20260901003003 60 186 0.0 0.0 0.00 0.01 0.00 67 1019.0
20260901001600 60 186 0.0 0.0 0.00 0.01 0.00 67 1018.7
20260901000059 61 186 0.0 0.0 0.00 0.01 0.00 67 1018.7
20260901000002 61 186 0.0 0.0 0.00 0.03 0.00 67 1018.6
20260831234559 62 186 0.0 0.0 0.00 0.03 0.00 67 1018.7
20260831233058 63 186 0.0 0.0 0.00 0.03 0.00 67 1018.8
20260831231600 64 186 0.0 0.0 0.00 0.03 0.00 66 1018.7
20260831230101 64 186 0.0 0.0 0.00 0.03 0.00 65 1018.7
20260831224559 65 186 0.0 0.0 0.00 0.03 0.00 64 1018.9
20260831223056 66 186 0.0 0.0 0.00 0.03 0.00 60 1018.9
20260831221555 68 186 0.0 0.0 0.00 0.03 0.00 60 1018.8
20260831220055 69 186 0.0 2.0 0.00 0.03 0.00 56 1018.7
20260831214622 71 186 0.0 2.0 0.00 0.03 0.00 54 1018.8
20260831213053 73 187 1.0 6.0 0.00 0.03 0.00 45 1018.8
20260831211553 74 195 1.0 4.0 0.00 0.03 0.00 46 1018.8
20260831210052 76 219 0.0 5.0 0.00 0.03 0.00 48 1018.8
20260831204557 76 165 1.0 6.0 0.00 0.03 0.00 51 1018.8
20260831203051 76 124 0.0 5.0 0.00 0.03 0.00 54 1018.9
20260831201545 77 109 0.0 3.0 0.00 0.03 0.00 45 1019.1
20260831200048 77 207 1.0 2.0 0.00 0.03 0.00 48 1019.4
20260831194545 77 207 0.0 3.0 0.00 0.03 0.00 44 1019.5
20260831193043 78 128 1.0 4.0 0.00 0.03 0.00 47 1019.5
20260831191540 77 212 1.0 4.0 0.00 0.03 0.00 43 1019.6
20260831190057 77 209 0.0 3.0 0.00 0.03 0.00 47 1019.7
20260831184538 77 306 0.0 4.0 0.00 0.03 0.00 43 1019.8
20260831183046 76 207 1.0 3.0 0.00 0.03 0.00 42 1019.9
20260831181529 75 164 0.0 6.0 0.00 0.03 0.00 43 1020.3
20260831180027 75 94 0.0 3.0 0.00 0.03 0.00 45 1020.3
20260831174524 73 107 1.0 4.0 0.00 0.03 0.00 44 1020.5
20260831173023 73 207 1.0 3.0 0.00 0.03 0.00 45 1020.6
20260831171520 72 211 1.0 5.0 0.00 0.03 0.00 45 1021.0
20260831170019 72 98 0.0 3.0 0.00 0.03 0.00 47 1021.1
20260831164514 71 287 0.0 3.0 0.00 0.04 0.00 47 1021.3
20260831163033 72 279 1.0 4.0 0.00 0.04 0.00 46 1021.5
20260831161513 71 110 1.0 4.0 0.00 0.04 0.00 51 1021.5
20260831160008 70 209 2.0 3.0 0.00 0.04 0.00 53 1021.6
20260831154504 69 277 1.0 5.0 0.00 0.04 0.00 57 1021.5
20260831153101 68 164 1.0 3.0 0.00 0.04 0.00 67 1021.5
20260831151557 67 194 1.0 3.0 0.00 0.04 0.00 67 1021.5
20260831150052 66 119 1.0 3.0 0.00 0.04 0.00 68 1021.4
20260831144551 64 238 2.0 4.0 0.00 0.04 0.00 73 1021.6
20260831143050 63 142 1.0 6.0 0.00 0.04 0.00 74 1021.9
20260831141540 62 194 2.0 6.0 0.00 0.04 0.00 78 1022.2
20260831140040 61 233 1.0 4.0 0.00 0.04 0.00 79 1022.2
20260831134533 60 164 0.0 3.0 0.00 0.04 0.00 81 1022.1
20260831133034 59 179 1.0 3.0 0.00 0.04 0.00 82 1022.2
20260831131539 57 134 0.0 3.0 0.00 0.04 0.00 82 1022.2
20260831130036 57 125 0.0 3.0 0.00 0.04 0.00 83 1022.3
20260831124531 56 126 0.0 2.0 0.00 0.04 0.00 83 1022.2
20260831123024 55 110 0.0 1.0 0.00 0.04 0.00 83 1022.2
20260831121522 54 114 0.0 3.0 0.00 0.04 0.00 82 1022.3
20260831120025 54 117 0.0 2.0 0.00 0.04 0.00 83 1022.2
20260831114518 54 117 0.0 0.0 0.00 0.04 0.00 83 1022.1
20260831113015 53 117 0.0 1.0 0.00 0.04 0.00 82 1022.1
20260831111516 53 117 0.0 1.0 0.00 0.04 0.00 83 1021.9
20260831110010 53 117 0.0 1.0 0.00 0.04 0.00 82 1021.9
20260831104508 52 117 0.0 1.0 0.00 0.04 0.00 82 1021.9
20260831103005 52 117 0.0 2.0 0.00 0.04 0.00 82 1021.7
20260831101504 52 117 0.0 1.0 0.00 0.04 0.00 82 1021.7
20260831100004 53 117 0.0 0.0 0.00 0.04 0.00 82 1021.6